星链-30268 (STARLINK-30268 )

导读 | 星芒AI

STARLINK-30268 是 SpaceX Starlink 项目中的一颗低轨通信卫星,属于第三代星链卫星(v1.5 或 v2 版本)。它于2023年发射,运行在约550公里高度的近地轨道,设计用于提供全球宽带互联网服务。该卫星采用先进推进系统和激光通信技术,以提高网络速度和稳定性。作为星链星座的一部分,STARLINK-30268 支持偏远地区的高速互联网接入,推动全球数字连接。

基本信息
目录编号:
57531
目录名称:
STARLINK-30268
国际标识:
2023-115L
轨道中心:
EARTH
卫星名称:
星链-30268
卫星全名:
星链-30268 (STARLINK-30268 )
卫星状态:
在轨 (已飞行814 天)
发射日期:
2023-08-08 UTC
国别 :
美国 (US)
星等 :
--
轨道信息
数据来源 国际轨道数据
星历时间: 2025-10-29T20:29:30+0800
1天前
查看轨道信息
半长轴: 6937.208km
偏心率: 0.0001288
轨道倾角: 43.005°
近地点辐角 272.616°
升交点赤经 357.442°
平近点角 87.454°
近地点: 558.179km
远地点: 559.967km
周期: 95.838分钟
每日圈数: 15.025389
详细信息
固有亮度:
5
最大亮度:
0.3
卫星平台:
Starlink v2.0 mini
覆盖范围:
全球
运营商:
太空探索技术公司
运营商所在国:
美国
制造商(研发单位):
太空探索技术公司
制造商所在国:
美国
使用方式:
暂无
卫星简介
星链(Starlink)计划是由太空探索技术公司(SpaceX)提出的一个巨型低轨卫星互联网星座项目,计划在2019年至2024年间在太空搭建由约1.2万颗卫星组成的“星链”网络,其中1584颗将部署在地球上空550千米处的近地轨道,并从2020年开始工作。该卫星仍在工作。
2D轨道图
3D轨道图
轨道高度分析图
轨道倾角分析图
轨道综合分析图
查看轨道综合分析图